Regional Weather Roundup
Issued by NWS

Home | Current Version | Previous Version | Graphics & Text | Print | Product List | Glossary On
Versions: 1 2 3 4 5 6 7 8 9 10 11 12 13 14 15 16 17 18 19 20 21 22 23 24 25 26 27 28 29 30 31 32 33 34 35 36 37 38 39 40 41 42 43 44 45 46 47 48 49 50
000
ASUS45 KCYS 301210
RWRWY

WYOMING REGIONAL WEATHER ROUNDUP
NATIONAL WEATHER SERVICE CHEYENNE WY
500 AM MST FRI JAN 30 2015

NOTE:  "FAIR" INDICATES FEW OR NO CLOUDS BELOW 12,000 FEET
WITH NO SIGNIFICANT WEATHER AND/OR OBSTRUCTIONS TO VISIBILITY.

WYZ001-301300-
YELLOWSTONE NATIONAL PARK

CITY           SKY/WX    TMP DP  RH WIND       PRES   REMARKS
LK YELLOWSTONE   N/A     -1  -6  79 CALM      30.28F
6HR MIN TEMP:  -2; 6HR MAX TEMP:   3;

W YELLOWSTONE  NOT AVBL

$$
WYZ002>013-054>058-071-098>099-301300-
NORTHERN WYOMING

CITY           SKY/WX    TMP DP  RH WIND       PRES   REMARKS
JACKSON        FAIR      12  10  92 N5        30.29S WCI   4
CODY           FAIR      25  18  74 SW5       30.20F WCI  19
GREYBULL       FOG       23  22  96 CALM      30.25S VSB 1/4
6HR MIN TEMP:  22; 6HR MAX TEMP:  25;

WORLAND        FAIR      19  16  88 S9        30.23F WCI   8
6HR MIN TEMP:  15; 6HR MAX TEMP:  23;

SHERIDAN       FAIR      24  19  81 CALM      30.19S
6HR MIN TEMP:  20; 6HR MAX TEMP:  26;

BUFFALO        FAIR      31   8  38 W5        30.20S WCI  26
6HR MIN TEMP:  28; 6HR MAX TEMP:  38;

GILLETTE       FAIR      23  20  88 CALM      30.18F
6HR MIN TEMP:  22; 6HR MAX TEMP:  31;

HULETT           N/A    N/A N/A N/A MISG        N/A
NEWCASTLE      FAIR      28  21  74 CALM      30.22S

$$
WYZ014>020-022>026-101>103-301300-
CENTRAL WYOMING

CITY           SKY/WX    TMP DP  RH WIND       PRES   REMARKS
BIG PINEY      MOCLDY    19  16  88 E6        30.24F WCI  11
6HR MIN TEMP:  17; 6HR MAX TEMP:  20;

PINEDALE       FAIR      14  12  92 NW5       30.26S WCI   6
DUBOIS         FAIR      21   7  53 NW9       30.21S WCI  11
LANDER         FAIR      28  20  71 W3        30.21S
6HR MIN TEMP:  26; 6HR MAX TEMP:  30;

RIVERTON       FAIR      27  23  85 CALM      30.22F
6HR MIN TEMP:  27; 6HR MAX TEMP:  31;

CASPER         FAIR      29  25  85 W8        30.21S WCI  21
6HR MIN TEMP:  28; 6HR MAX TEMP:  31;

DOUGLAS        FAIR      24  22  91 NW5       30.22S WCI  18
6HR MIN TEMP:  23; 6HR MAX TEMP:  28;


$$
WYZ021-027>030-104>119-301300-
SOUTHERN WYOMING

CITY           SKY/WX    TMP DP  RH WIND       PRES   REMARKS
EVANSTON       MOCLDY    29  25  85 N5        30.21F WCI  24
6HR MIN TEMP:  29; 6HR MAX TEMP:  32;

KEMMERER       FAIR      25  21  86 N8        30.21F WCI  16
FORT BRIDGER   PTSUNNY   30  28  92 CALM      30.25F
ROCK SPRINGS   CLOUDY    28  26  92 W7        30.21F WCI  21
6HR MIN TEMP:  28; 6HR MAX TEMP:  32;

DIXON          MIX PCPN  31  29  90 SE3       30.27S
RAWLINS        MOCLDY    29  25  85 CALM      30.23F
6HR MIN TEMP:  26; 6HR MAX TEMP:  29;

SARATOGA       CLOUDY    28  27  93 MISG      30.24S
LARAMIE        FAIR      26  22  84 CALM      30.21F
6HR MIN TEMP:  25; 6HR MAX TEMP:  28;

CHEYENNE       FAIR      27  22  81 W7        30.20F WCI  19
6HR MIN TEMP:  26; 6HR MAX TEMP:  30;

TORRINGTON     FAIR      27  19  72 E8        30.22S WCI  19
6HR MIN TEMP:  25; 6HR MAX TEMP:  28;

PINE BLUFFS    FAIR      27  23  86 CALM      30.23S

$$



USA.gov is the U.S. government's official web portal to all federal, state and local government web resources and services.